F5MAP-5 Weather Reports


Display with metric or nautical units.
time (UTC)temp
F
wind
direction
speed
MPH
gust
MPH
rain 1hr
in
rain 24hr
in
rain mn
in
humidity
%
barometer
mb
20260505053215 53 185 1.0 4.0 0.00 0.00 0.00 93 1010.2
20260505052215 53 193 2.0 3.0 0.00 0.00 0.00 93 1010.1
20260505051215 53 253 0.0 2.0 0.00 0.00 0.00 93 1010.0
20260505050214 53 271 0.0 2.0 0.00 0.00 0.00 93 1010.1
20260505041215 53 279 0.0 0.0 0.00 0.00 0.00 93 1010.0
20260505040215 53 286 0.0 3.0 0.00 0.00 0.00 92 1010.1
20260505035215 53 266 0.0 3.0 0.00 0.00 0.00 92 1010.3
20260505034214 53 265 2.0 6.0 0.00 0.00 0.00 93 1010.2
20260505033215 52 269 0.0 0.0 0.00 0.00 0.00 92 1010.2
20260505032214 52 231 0.0 0.0 0.00 0.00 0.00 92 1010.1
20260505031214 52 203 0.0 0.0 0.00 0.00 0.00 92 1010.1
20260505030214 52 203 0.0 0.0 0.00 0.00 0.00 92 1010.2
20260505025215 53 180 0.0 0.0 0.00 0.00 0.00 92 1010.3
20260505024214 52 180 0.0 0.0 0.00 0.00 0.00 92 1010.3
20260505023214 52 180 0.0 0.0 0.00 0.00 0.00 92 1010.3
20260505022214 52 180 0.0 0.0 0.00 0.00 0.00 92 1010.4
20260505021214 52 172 0.0 0.0 0.00 0.00 0.00 92 1010.4
20260505020214 53 208 0.0 0.0 0.00 0.00 0.00 92 1010.6
20260505015215 53 208 0.0 0.0 0.00 0.00 0.00 91 1010.6
20260505014215 53 208 0.0 0.0 0.00 0.00 0.00 91 1010.7
20260505013215 53 208 0.0 0.0 0.00 0.00 0.00 91 1010.8
20260505012215 52 208 0.0 0.0 0.00 0.00 0.00 91 1011.0
20260505011215 52 208 0.0 0.0 0.00 0.00 0.00 91 1011.1
20260505010214 53 267 0.0 0.0 0.00 0.00 0.00 91 1011.3
20260505005215 53 267 0.0 0.0 0.00 0.00 0.00 91 1011.4
20260505004216 53 267 0.0 0.0 0.00 0.00 0.00 91 1011.5
20260505003215 53 267 0.0 0.0 0.00 0.00 0.00 90 1011.7
20260505002215 53 267 0.0 0.0 0.00 0.00 0.00 90 1011.8
20260505001214 53 267 0.0 0.0 0.00 0.00 0.00 90 1011.8
20260505000215 53 267 0.0 0.0 0.00 0.00 0.00 90 1011.9
20260504235215 53 231 0.0 0.0 0.00 0.00 0.00 90 1011.9
20260504234215 54 231 0.0 0.0 0.00 0.00 0.00 90 1012.1
20260504233215 54 231 0.0 0.0 0.00 0.00 0.00 90 1012.1
20260504232214 54 231 0.0 0.0 0.00 0.00 0.00 90 1012.2
20260504231214 54 255 0.0 0.0 0.00 0.00 0.00 89 1012.3
20260504230214 54 255 0.0 0.0 0.00 0.00 0.00 89 1012.3
20260504225216 54 255 0.0 0.0 0.00 0.00 0.00 89 1012.4
20260504224214 54 313 0.0 0.0 0.00 0.00 0.00 89 1012.3
20260504223214 54 268 0.0 0.0 0.00 0.00 0.00 89 1012.5
20260504222214 54 257 0.0 0.0 0.00 0.00 0.00 88 1012.6
20260504221214 54 257 0.0 0.0 0.00 0.00 0.00 88 1012.6
20260504220214 55 247 0.0 0.0 0.00 0.00 0.00 88 1012.5
20260504215214 55 101 0.0 0.0 0.00 0.00 0.00 88 1012.4
20260504214214 55 101 0.0 0.0 0.00 0.00 0.00 88 1012.5
20260504213214 55 154 0.0 0.0 0.00 0.00 0.00 88 1012.7
20260504212214 56 177 0.0 0.0 0.00 0.00 0.00 88 1012.8
20260504211214 56 177 0.0 0.0 0.00 0.00 0.00 88 1012.8
20260504210214 56 177 0.0 0.0 0.00 0.00 0.00 88 1013.1
20260504205214 56 177 0.0 0.0 0.00 0.00 0.00 87 1013.0
20260504204214 57 177 0.0 0.0 0.00 0.00 0.00 87 1013.1
20260504203214 57 177 0.0 0.0 0.00 0.00 0.00 87 1013.1
20260504202217 58 316 0.0 0.0 0.00 0.00 0.00 87 1013.1
20260504201213 58 298 0.0 0.0 0.00 0.00 0.00 87 1013.1
20260504200213 58 291 0.0 3.0 0.00 0.00 0.00 86 1013.1
20260504195214 58 310 2.0 3.0 0.00 0.00 0.00 86 1013.1
20260504194214 58 290 3.0 4.0 0.00 0.00 0.00 86 1013.1
20260504193214 58 254 0.0 0.0 0.00 0.00 0.00 85 1012.9
20260504192214 59 155 0.0 0.0 0.00 0.00 0.00 85 1012.7
20260504191215 59 147 0.0 0.0 0.00 0.00 0.00 85 1012.8
20260504190214 59 232 0.0 0.0 0.00 0.00 0.00 84 1012.7
20260504185214 59 230 0.0 0.0 0.00 0.00 0.00 84 1012.7
20260504184215 59 190 1.0 3.0 0.00 0.00 0.00 84 1012.6
20260504183214 60 140 1.0 3.0 0.00 0.00 0.00 83 1012.6
20260504182213 60 165 1.0 6.0 0.00 0.00 0.00 83 1012.7
20260504181213 60 169 3.0 7.0 0.00 0.00 0.00 83 1012.8
20260504180213 61 138 3.0 6.0 0.00 0.00 0.00 83 1012.8
20260504175214 61 173 3.0 6.0 0.00 0.00 0.00 82 1012.9
20260504174214 62 192 3.0 6.0 0.00 0.00 0.00 81 1013.1
20260504173214 62 211 3.0 5.0 0.00 0.00 0.00 79 1013.2
20260504172214 63 205 2.0 4.0 0.00 0.00 0.00 78 1013.3
20260504171214 63 223 2.0 5.0 0.00 0.00 0.00 77 1013.4
20260504170213 64 196 2.0 6.0 0.00 0.00 0.00 77 1013.5
20260504160213 66 262 1.0 4.0 0.00 0.00 0.00 71 1013.5
20260504150212 69 269 3.0 6.0 0.00 0.00 0.00 58 1013.3
20260504141213 69 276 2.0 8.0 0.00 0.00 0.00 52 1013.2
20260504140213 70 298 4.0 6.0 0.00 0.00 0.00 52 1013.2
20260504130212 73 276 4.0 8.0 0.00 0.00 0.00 46 1013.1
20260504120212 74 262 3.0 7.0 0.00 0.00 0.00 43 1013.2
20260504110212 73 335 2.0 6.0 0.00 0.00 0.00 45 1013.3
20260504100212 69 250 5.0 11.0 0.00 0.00 0.00 51 1013.9
20260504081212 61 193 3.0 4.0 0.00 0.00 0.00 71 1014.4
20260504080212 60 221 3.0 7.0 0.00 0.00 0.00 73 1014.4
20260504070211 56 198 3.0 5.0 0.00 0.00 0.00 82 1014.4
20260504060212 52 234 2.0 5.0 0.00 0.00 0.00 85 1014.2